Location: Brede
(50.9167°N, 0.6000°E)
Time: 20:35:07
(UTC+00:00)

Vanguard 1 Rocket - Pass Details

Date: 28 November 2020
Orbit: 655 x 4221 km, 34.3° (Epoch: 17 January)

Event Time Altitude Azimuth Distance (km) Brightness Sun altitude
Exits shadow 02:04:32 41° 158° (SSE) 4,525 10.6 -49.9°
Drops below altitude 10° 02:18:49 10° 102° (ESE) 5,291 11.6 -48.0°
Sets 02:22:23 0° 95° (E) 5,888 12.1 -47.5°
